This demonstration page uses our WeatherBlox Daily Observations layout. Learn more.

Left ArrowRight Arrow

34.74481, -87.66753

Hourly Observations for December 11, 2018

Temp ( °F °C ) Dew Point ( °F °C ) Humidity (%) Winds ( mph kmh ) Pressure ( in mb ) Visibility ( mi km ) Precip ( " mm )
12:53 am 00:53 Clear 29 -1.7 26 -3.3 89 89 WNW 3 6 30.34 1027 7 11 0.00 0.00
1:53 am 01:53 Clear 29 -1.7 27 -2.8 92 92 WNW 5 7 30.35 1028 8 13 0.00 0.00
2:53 am 02:53 Clear 28 -2.2 26 -3.3 92 92 NW 3 6 30.35 1028 7 11 0.00 0.00
3:53 am 03:53 Clear with Mist and Fog 27 -2.8 24 -4.4 89 89 Calm 30.35 1028 6 10 0.00 0.00
4:08 am 04:08 Clear with Mist and Fog 26 -3.3 24 -4.4 92 92 Calm 30.36 1028 2 3 0.00 0.00
4:19 am 04:19 undefined 26 -3.3 24 -4.4 92 92 undefined N/A 30.39 1029 N/A 0.00 0.00
4:53 am 04:53 Clear 28 -2.2 26 -3.3 92 92 NW 3 6 30.37 1028 8 13 0.00 0.00
5:53 am 05:53 undefined N/A N/A N/A undefined N/A N/A N/A 0.00 0.00
7:37 am 07:37 Partly Cloudy with Freezing Fog 26 -3.3 25 -3.9 96 96 W 5 7 30.42 1030 0 0 0.00 0.00
7:53 am 07:53 undefined 26 -3.3 25 -3.9 96 96 undefined N/A 30.42 1030 N/A 0.00 0.00
8:29 am 08:29 Partly Cloudy with Freezing Fog 27 -2.8 27 -2.8 100 100 Calm 30.45 1031 0 0 0.00 0.00
8:50 am 08:50 Mostly Cloudy with Freezing Fog 27 -3 27 -3 100 100 W 5 7 30.45 1031 0 0 0.00 0.00
8:53 am 08:53 Mostly Cloudy with Freezing Fog 27 -2.8 26 -3.3 96 96 WSW 5 7 30.43 1031 0 0 0.00 0.00
9:53 am 09:53 Mostly Cloudy with Freezing Fog 28 -2.2 27 -2.8 96 96 Calm 30.43 1031 0 0 0.00 0.00
10:13 am 10:13 Mostly Cloudy with Freezing Fog 29 -1.7 28 -2.2 96 96 Calm 30.45 1031 1 1 0.00 0.00
10:41 am 10:41 Mostly Cloudy with Mist and Fog 31 -0.6 31 -0.6 100 100 Calm 30.42 1030 2 3 0.00 0.00
10:47 am 10:47 Partly Cloudy with Mist and Fog 30 -1 30 -1 100 100 Calm 30.42 1030 3 5 0.00 0.00
10:53 am 10:53 Partly Cloudy with Mist and Fog 32 0 31 -0.6 96 96 SE 3 6 30.40 1030 3 5 0.00 0.00
11:53 am 11:53 Hazy 39 3.9 32 0 76 76 Calm 30.36 1028 6 10 0.00 0.00
12:53 pm 12:53 Sunny 44 6.7 32 0 63 63 Calm 30.33 1027 10 16 0.00 0.00
1:53 pm 13:53 Sunny 48 8.9 30 -1.1 50 50 Calm 30.31 1026 10 16 0.00 0.00
2:53 pm 14:53 Sunny 49 9.4 26 -3.3 41 41 WSW 9 15 30.31 1027 10 16 0.00 0.00
3:53 pm 15:53 Sunny 48 8.9 27 -2.8 44 44 WSW 9 15 30.30 1026 10 16 0.00 0.00
4:53 pm 16:53 Clear 43 6.1 28 -2.2 56 56 SW 6 9 30.30 1026 10 16 0.00 0.00
5:53 pm 17:53 Clear 41 5 25 -3.9 53 53 SW 7 11 30.30 1026 10 16 0.00 0.00
6:53 pm 18:53 Clear 39 3.9 24 -4.4 55 55 SSW 5 7 30.33 1027 10 16 0.00 0.00
7:53 pm 19:53 Clear 36 2.2 25 -3.9 64 64 SSE 3 6 30.29 1026 10 16 0.00 0.00
8:53 pm 20:53 Clear 34 1.1 26 -3.3 73 73 S 3 6 30.28 1025 10 16 0.00 0.00
9:53 pm 21:53 Clear 33 0.6 25 -3.9 72 72 Calm 30.27 1025 10 16 0.00 0.00
10:53 pm 22:53 Clear 35 1.7 25 -3.9 67 67 SSE 3 6 30.26 1025 10 16 0.00 0.00
11:53 pm 23:53 Clear 33 0.6 27 -2.8 78 78 SSE 3 6 30.25 1025 10 16 0.00 0.00

Powered by AerisWeather